Regional Weather Roundup
Issued by NWS

Home | Current Version | Previous Version | Text Only | Print | Product List | Glossary On
Versions: 1 2 3 4 5 6 7 8 9 10 11 12 13 14 15 16 17 18 19 20 21 22 23 24 25 26 27 28 29 30 31 32 33 34 35 36 37 38 39 40 41 42 43 44 45 46 47 48 49
000
ASUS45 KBOU 291407
RWRCO

WEATHER ROUNDUP FOR COLORADO
NATIONAL WEATHER SERVICE DENVER/BOULDER CO
700 AM MST MON DEC 29 2014

NOTE: "FAIR" INDICATES FEW OR NO CLOUDS BELOW 12000 FEET WITH NO
SIGNIFICANT WEATHER AND/OR OBSTRUCTIONS TO VISIBILITY.

COZ001>005-013-030-031-291500-
...NORTHWEST COLORADO...

CITY           SKY/WX    TMP DP  RH WIND       PRES   REMARKS
CRAIG          FLURRIES  11   7  84 E5        29.98R WCI   3
HAYDEN         CLOUDY    10   7  85 SE6       29.94R WCI   1
MEEKER         CLOUDY    10   7  87 E3        29.94R
MOUNT WERNER   NOT AVBL
STEAMBOAT SPGS CLOUDY     6   1  82 NW6       29.94R WCI  -5
WALDEN         CLOUDY    -2  -8  78 CALM      29.91R
$$

COZ006>008-011-291500-
...WEST CENTRAL VALLEYS...

CITY           SKY/WX    TMP DP  RH WIND       PRES   REMARKS
GRAND JUNCTION LGT SNOW  21  19  92 NE3       29.98S FOG
MONTROSE       LGT SNOW  20  18  92 SE6       29.97S FOG     WCI  12
EAGLE          LGT SNOW  14  12  92 E5        29.96R FOG     WCI   6
RIFLE          CLOUDY    18  14  84 CALM      29.97S
DELTA          LGT SNOW  24  21  89 N3        29.99S
NUCLA          LGT SNOW  23  21  93 CALM      30.00S
$$

COZ017>023-064>068-291500-
...SOUTHWEST COLORADO...

CITY           SKY/WX    TMP DP  RH WIND       PRES   REMARKS
DURANGO        MOCLDY     6   2  83 E5        29.96S WCI  -3
CORTEZ         PTCLDY     7   3  84 CALM      29.97S
PAGOSA SPRINGS CLOUDY   N/A N/A N/A CALM      29.94S
TELLURIDE      NOT AVBL
WOLF CREEK PAS SNOW       1   0  92 MISG      29.79F VSB 1/2
$$

COZ009-010-012-014-032>034-037-058>063-291500-
...CENTRAL COLORADO...

CITY           SKY/WX    TMP DP  RH WIND       PRES   REMARKS
ASPEN          CLOUDY    13  11  92 CALM      29.87S
BUENA VISTA    LGT SNOW  15  12  90 SE6       29.91R WCI   6
COPPER MTN     LGT SNOW   5   0  78 MISG      29.76S
BERTHOUD PASS  NOT AVBL
COTTONWOOD PAS LGT SNOW  14  10  85 SE5       29.84S WCI   6
GUNNISON       CLOUDY     5 -17  36 CALM      29.93S
KREMMLING      LGT SNOW   5   1  85 CALM      29.94S
LEADVILLE      LGT SNOW   5   1  83 E3        29.81S FOG
MONARCH PASS   CLOUDY     5   1  85 MISG      29.87S
SALIDA         CLOUDY    17  13  87 CALM      29.99S
SUNLIGHT       LGT SNOW N/A N/A N/A CALM      29.82R
WILKERSON PASS LGT SNOW   3   0  85 E8        29.82R WCI -10
$$

COZ069>075-291500-
...SAN LUIS VALLEY/SANGRE DE CRISTO MOUNTAINS...

CITY           SKY/WX    TMP DP  RH WIND       PRES   REMARKS
ALAMOSA        CLOUDY    -8 -12  83 CALM      29.94S FOG
LA VETA PASS   NOT AVBL
SAGUACHE       MOCLDY     3  -2  78 NW7       29.94S WCI  -9
$$

COZ035-036-038>040-291500-
...NORTHERN COLORADO FRONT RANGE...

CITY           SKY/WX    TMP DP  RH WIND       PRES   REMARKS
DENVER INTL AP LGT SNOW  15  12  88 N8        30.08R VSB 3/4 WCI   4
DMNS CITY PARK   N/A     17  13  86 NE2       30.10R
AURORA         LGT SNOW  16  13  87 N6        30.07R VSB 3/4 WCI   7
FRONT RANGE AP LGT SNOW  19  16  86 N5        30.07R WCI  13
ERIE MUNI ARPT   N/A     17  13  83 MISG      30.10R
BOULDER MUN AP CLOUDY    19  12  73 NE5       30.10R WCI  13
CENTENNIAL     LGT SNOW  16  13  88 N12       30.05R VSB 3/4 WCI   3
BROOMFIELD     CLOUDY    18  12  79 N7        30.08R FOG     WCI   8
FORT COLLINS   PTCLDY    18   9  68 N16       30.11R WCI   3
LONGMONT       CLOUDY    19  12  76 CALM      30.12R
$$

COZ041-046-047-076>085-087-088-291500-
...PIKES PEAK/PALMER DIVIDE AND SOUTHERN FOOTHILLS...

CITY           SKY/WX    TMP DP  RH WIND       PRES   REMARKS
COLO. SPRINGS  MOCLDY    21  11  65 N20       29.98R WCI   6
A. F. ACADEMY  FLURRIES  18  11  76 N16       29.98R WCI   3
ELLICOTT       NOT AVBL
FALCON         MOCLDY    17  10  75 N16G23    29.96R WCI   1
FORT CARSON    CLOUDY    22  12  64 N18       29.96R WCI   7
LIMON          CLOUDY    16  11  80 N12       30.03R WCI   3
MONUMENT HILL  LGT SNOW  14  12  92 N10       29.97R WCI   1
TRINIDAD       PTCLDY     8   1  73 NW7       29.94S WCI  -3
$$

COZ042>045-048>051-090-091-291500-
...NORTHEAST COLORADO...

CITY           SKY/WX    TMP DP  RH WIND       PRES   REMARKS
GREELEY ARPT   PTCLDY    16   7  67 N8        30.11R WCI   5
AKRON          CLOUDY    14  13  95 N20       30.10R FOG     WCI  -3
BURLINGTON     FOG       16  13  88 N13       30.07R VSB 1/2 WCI   2
WRAY           CLOUDY    15  13  90 N10       30.14R WCI   2
STERLING       FLURRIES  19  18  93 NE10      30.15R WCI   8
HOLYOKE        CLOUDY    19  18  93 NE13      30.16R WCI   7
FORT MORGAN    MOCLDY    15  11  85 N20       30.11R WCI  -3
$$

COZ086-089-092>099-291500-
...SOUTHEAST COLORADO...

CITY           SKY/WX    TMP DP  RH WIND       PRES   REMARKS
PUEBLO         PTCLDY     9   4  80 NW3       30.01R
LA JUNTA       PTCLDY    14  10  84 CALM      30.04R
LAMAR          CLEAR      6   3  87 SW6       30.05R WCI  -4
SPRINGFIELD      N/A     14  11  87 NW7       30.01R WCI   4
$$


USA.gov is the U.S. government's official web portal to all federal, state and local government web resources and services.